星链-30920 (STARLINK-30920 )

导读

STARLINK-30920是美国SpaceX公司星链星座的一颗通信卫星,于2023年11月20日发射升空,属于星链星座第二代组网卫星。星链项目旨在构建全球低轨卫星互联网,为全球提供高速低延迟宽带服务,覆盖偏远地区,支持多场景联网需求。该卫星采用模块化设计,配备氪离子推进系统,可自主规避碰撞,服务全球网络覆盖。

Basic Information
目录编号:
58378
目录名称:
STARLINK-30920
国际标识:
2023-178E
轨道中心:
EARTH
卫星名称:
星链-30920
卫星全名:
星链-30920 (STARLINK-30920 )
卫星状态:
在轨 (已飞行941 天)
发射日期:
2023-11-20 UTC
国别 :
美国 (US)
星等 :
--
Orbit Information
数据来源 国际轨道数据 AOE轨道数据
星历时间 2026-06-17T20:31:50+0800
22小时前
查看轨道信息
2026-06-16T06:00:00+0800
2天前
查看轨道信息
半长轴 6853.368km 6853.406km
偏心率 0.0001194 0.0000903
轨道倾角 53.160° 53.160°
近地点辐角 70.730° 43.889°
升交点赤经 244.800° 252.252°
平近点角 289.383° 107.405°
近地点 474.412km 474.65km
远地点 476.05km 475.888km
周期 94.106分钟 94.106分钟
每日圈数 15.301948 15.301822
Detailed Information
固有亮度:
5
最大亮度:
0.3
卫星平台:
Starlink v2.0 mini
覆盖范围:
全球
运营商:
太空探索技术公司
运营商所在国:
美国
制造商(研发单位):
太空探索技术公司
制造商所在国:
美国
使用方式:
暂无
Satellite Introduction
星链(Starlink)计划是由太空探索技术公司(SpaceX)提出的一个巨型低轨卫星互联网星座项目,计划在2019年至2024年间在太空搭建由约1.2万颗卫星组成的“星链”网络,其中1584颗将部署在地球上空550千米处的近地轨道,并从2020年开始工作。该卫星仍在工作。
2D Orbit Map
3D Orbit Map
Orbit Altitude Analysis Chart
Orbit Inclination Analysis Chart
Orbit Comprehensive Analysis Chart
View Comprehensive Chart